Location: Shell Point
(30.0571°N, 84.2896°W)
Time: 14:38:18
(UTC-04:00)

Daily predictions for brighter satellites

Satellite Brightness Start Highest point End
(mag) Time Altitude Azimuth Time Altitude Azimuth Time Altitude Azimuth
Aureole 3 4.1 20:43:57 10° N 20:49:18 72° W 20:53:25 10° S
Cosmos 1271 Rocket 2.8 20:46:39 10° N 20:50:36 69° E 20:54:29 10° SSE
ISS -3.1 20:47:51 10° SSW 20:50:48 32° SE 20:53:46 10° ENE
Cosmos 2221 Rocket 3.9 20:46:46 10° S 20:51:19 78° W 20:55:52 10° N
Cosmos 1980 Rocket 4.1 20:48:43 10° NNE 20:51:22 13° ENE 20:54:01 10° E
Delta 2 Rocket 2.9 20:51:56 10° WNW 20:55:15 67° SSW 20:58:41 10° ESE
Cosmos 1812 3.3 20:53:43 10° SSE 20:57:16 37° E 21:00:50 10° NNE
YAOGAN 6 3.5 20:55:44 10° SE 20:59:03 32° ENE 21:02:22 10° NNE
Cosmos 1802 Rocket 4.2 20:54:24 10° SSE 21:00:27 53° E 21:06:36 10° NNE
Cosmos 1833 Rocket 3.1 20:55:15 10° SSW 21:00:52 72° WNW 21:06:30 10° NNE
DNEPR-1 R/B 4.1 21:02:46 10° S 21:06:29 32° ESE 21:10:22 10° NE
Cosmos 2369 3.8 21:05:05 10° NNW 21:10:42 60° ENE 21:16:16 10° SSE
Abrixas rocket 3.2 21:08:31 10° S 21:11:13 25° SE 21:13:56 10° ENE
ERS-2 2.7 21:13:22 11° SE 21:16:37 40° ENE 21:20:05 10° N
NOSS 3-2 (A) 3.6 21:11:19 10° S 21:16:42 44° ESE 21:22:27 10° NE
Cosmos 44 3.8 21:14:14 10° NNW 21:19:29 54° ENE 21:23:54 15° SE
NOSS 3-2 (C) 4.0 21:15:10 10° S 21:20:08 31° ESE 21:25:24 10° NE
ATLAS CENTAUR R/B 3.6 21:17:38 10° NNE 21:20:31 16° NE 21:23:09 11° E
CZ-2D R/B 4.0 21:18:44 10° S 21:22:30 54° W 21:26:18 10° NNW
Cosmos 1674 Rocket 3.6 21:19:29 10° S 21:23:50 58° E 21:28:13 10° NNE
Okean 2 Rocket 3.4 21:19:41 10° N 21:24:04 70° W 21:28:29 10° S
Cosmos 1378 Rocket 4.3 21:20:43 11° SSE 21:24:19 31° E 21:28:08 10° NNE
USA 234 4.0 21:18:39 10° NNE 21:25:04 58° NW 21:31:28 10° WSW
Meteor 1-5 Rocket 4.4 21:20:35 10° N 21:26:28 88° W 21:32:25 10° S
Cosmos 1536 2.8 21:23:02 10° N 21:27:07 89° W 21:31:11 10° S
Okean 1 Rocket 4.4 21:24:38 10° NNE 21:27:57 21° ENE 21:29:27 18° ESE
Resurs 01 Rocket 1.8 21:24:49 13° SSE 21:28:35 53° ENE 21:32:53 10° N
Atlas Centaur 2 0.9 21:25:42 10° W 21:29:29 88° S 21:32:12 16° E
Tiangong 2 1.0 21:26:58 10° WSW 21:30:07 84° NNW 21:33:16 10° NE
Delta 168 3.0 21:27:17 10° WSW 21:30:19 34° S 21:31:30 24° SE
Cosmos 2082 Rocket 3.6 21:25:40 10° SW 21:30:58 42° WNW 21:36:20 10° N
COSMOS 2487 2.3 21:30:28 10° S 21:33:57 78° ESE 21:37:26 10° NNE
Cosmos 1777 Rocket 4.0 21:29:53 10° N 21:35:04 67° ENE 21:39:01 17° SSE
Envisat 4.0 21:30:28 10° S 21:35:19 46° W 21:40:12 10° NNW
Cosmos 1975 4.5 21:35:10 10° NE 21:37:51 17° ENE 21:38:14 17° E
Cosmos 1184 Rocket 3.5 21:35:36 10° SSW 21:38:53 56° W 21:42:11 10° N
Cosmos 1864 Rocket 4.4 21:33:17 10° S 21:39:25 67° E 21:45:30 10° NNE
Thor Agena Rocket 4.4 21:34:43 10° N 21:39:50 55° WNW 21:44:55 10° SSW
SJ-6B 4.4 21:37:19 10° SSW 21:40:40 31° W 21:44:00 10° NW
Timation 2 Rocket 4.2 21:41:01 10° S 21:46:35 43° ESE 21:52:11 10° NE
SL-16 R/B 4.2 21:44:20 10° NNE 21:46:36 12° ENE 21:48:26 11° ENE
USA 186 3.0 21:44:17 11° SSW 21:46:58 36° W 21:49:55 10° NNW
Cosmos 2278 4.0 21:44:50 10° NNW 21:50:27 66° WSW 21:55:09 15° S
ARGOS 4.1 21:49:16 24° ESE 21:51:15 30° ENE 21:55:54 10° N
IUS-9 SRM-1 3.7 21:48:27 10° WSW 21:52:13 66° S 22:10:11 10° E
Cosmos 2151 Rocket 4.1 21:50:10 10° NNW 21:54:33 58° W 21:58:30 12° S
CENTAUR R/B 3.5 21:55:23 22° E 21:55:23 22° E 21:59:15 10° ENE
GPS 2-04 Rocket1 3.8 21:53:14 10° WNW 21:57:17 43° N 21:59:43 21° ENE
Transit 2A Rocket 4.4 21:53:50 10° NNW 21:58:09 84° ENE 21:59:52 36° SSE
Okean 3 4.3 21:54:52 10° SSW 21:59:04 53° W 22:03:15 10° N
Cosmos 2360 4.4 21:54:12 10° N 21:59:47 55° ENE 22:02:15 32° SE
Lacrosse 4 Rocket 4.4 22:00:17 10° W 22:01:30 11° WSW 22:02:43 10° WSW
ATLAS 3B R/B 3.5 21:56:52 10° SW 22:03:58 56° WNW 22:10:51 10° NNE
Cosmos 1300 Rocket 4.1 22:06:31 10° NNW 22:10:47 54° W 22:13:24 22° SSW
Okean 1 3.7 22:08:31 18° SSW 22:11:25 63° W 22:15:27 10° N
Delta 7925 Rocket 3.3 22:09:08 10° WSW 22:13:37 51° S 22:14:13 48° SSE
Spot 2 Rocket 3.8 22:11:22 23° S 22:14:27 64° WSW 22:19:28 10° NNW
Delta 142 4.0 22:09:57 10° WSW 22:16:18 68° S 22:17:53 44° ESE
Cosmos 2084 3.6 22:17:49 52° E 22:17:49 52° E 22:21:24 10° NE
Cosmos 44 Rocket 3.6 22:13:14 10° NNW 22:18:24 67° WSW 22:20:19 38° S
Cosmos 468 Rocket 3.9 22:17:37 14° SSW 22:22:11 87° WNW 22:27:27 10° NNE
Cosmos 1697 Rocket 3.5 22:18:33 10° NW 22:23:55 45° WSW 22:27:07 23° SSW
Tsikada Rocket 4.1 22:18:50 10° N 22:25:15 80° W 22:28:50 28° S
ISS -0.7 22:25:07 10° W 22:27:19 17° NW 22:29:32 10° N
MetOp-B 4.2 22:27:45 51° ESE 22:28:43 60° ENE 22:33:58 10° N
SL-08 RB Rocket 3.8 22:29:45 54° ENE 22:29:45 54° ENE 22:34:08 10° N
Cosmos 2360 Rocket 4.3 22:30:38 10° NE 22:32:40 12° ENE 22:33:03 12° ENE
Cosmos 1763 Rocket 3.4 22:34:07 57° SSE 22:35:09 74° ESE 22:40:27 10° NNE
Cosmos 1980 Rocket 2.4 22:30:11 10° NNW 22:35:49 68° WSW 22:37:31 44° S
Cosmos 841 Rocket 3.9 22:37:55 45° ENE 22:37:55 45° ENE 22:42:05 10° NNE
Cosmos 1666 3.2 22:39:18 10° N 22:42:31 58° NNW 22:42:31 58° NNW
H-2A R/B 1.7 22:44:12 79° ESE 22:44:23 81° ENE 22:49:21 10° N
Cosmos 1743 3.4 22:40:47 10° N 22:43:46 52° NNW 22:43:46 52° NNW
Meteor 2-4 Rocket 3.4 22:45:41 73° SE 22:46:05 78° E 22:51:33 10° N
Cosmos 1340 Rocket 4.4 22:51:32 27° NNE 22:51:32 27° NNE 22:53:32 10° NNE
DMSP B5D2-2 3.9 22:46:43 10° NNE 22:52:01 81° ESE 22:52:04 81° ESE
Helios 1B rocket 4.2 22:51:03 10° NNE 22:52:46 23° NNE 22:52:46 23° NNE
Cosmos 1455 Rocket 4.3 22:53:28 10° N 22:56:06 33° NNE 22:56:06 33° NNE
ATLAS CENTAUR R/B 2.4 22:55:11 10° NW 22:59:24 46° WSW 22:59:24 46° WSW
Cosmos 1975 Rocket 4.4 22:59:35 31° WSW 23:00:27 34° W 23:04:24 10° NNW
Cosmos 1242 Rocket 4.4 23:00:23 10° NNW 23:02:29 30° NW 23:02:29 30° NW
Cosmos 1898 Rocket 3.5 23:00:37 10° NNW 23:05:31 77° NNW 23:05:31 77° NNW
Tiangong 2 4.3 23:05:15 10° WNW 23:06:44 15° NNW 23:06:44 15° NNW
Cosmos 1072 Rocket 4.5 23:06:21 65° SSW 23:07:23 83° W 23:13:44 10° N
ERS-1 Rocket 3.1 23:07:59 68° WNW 23:07:59 68° WNW 23:12:37 10° NNW
BREEZE M DEB (TANK) 4.2 23:08:05 10° NW 23:13:13 29° NNE 23:13:13 29° NNE
NOSS 3-3 (A) 4.5 23:05:57 10° NNW 23:13:44 74° ENE 23:14:58 64° ESE
NOSS 3-3 (C) 4.5 23:06:04 10° NNW 23:13:50 73° ENE 23:15:04 64° ESE
Atlas Centaur 2 3.9 23:14:30 10° W 23:14:50 12° W 23:14:50 12° W
Mugunghwa Rocket 4.5 23:10:48 10° WSW 23:17:46 61° SSW 23:17:46 61° SSW
Meteor 2-20 4.5 23:13:00 10° N 23:19:06 72° W 23:19:21 71° WSW
Meteor 2-20 Rocket 4.4 23:15:59 10° N 23:21:48 81° N 23:21:48 81° N
Cosmos 2322 Rocket 2.4 23:19:06 10° NNW 23:23:50 65° NNW 23:23:50 65° NNW
SL-16 R/B 2.6 23:25:35 10° NNW 23:30:19 60° NW 23:30:19 60° NW
SPOT 5 4.2 23:33:17 32° NNW 23:33:17 32° NNW 23:35:48 10° NNW
CZ-2C R/B 4.4 23:41:02 34° NNE 23:41:02 34° NNE 23:44:21 10° N
CENTAUR R/B 3.4 23:42:22 30° WSW 23:44:40 42° NW 23:50:50 10° NNE
SJ 16-02 3.7 23:40:41 10° N 23:42:00 18° NNE 23:42:00 18° NNE
Cosmos 2034 Rocket 4.5 23:49:35 54° WNW 23:49:35 54° WNW 23:55:14 10° N
